Starlink 33569

operational
NORAD ID: 62769 Int'l Des: 2025-015 Owner: SPXS Country: US Constellation: starlink
LEOCIRCULAR

关于 Starlink 33569

正在加载描述...

实时位置

正在加载3D地球...

即将过境

高度历史

Altitude vs Time

uPlot chart will show altitude changes over time

两行轨道根数

1 62769U 25015M 26035.50312748 .00026748 00000-0 91219-3 0 9991
2 62769 53.1581 116.3593 0001441 83.9374 276.1791 15.30191948 59409
Epoch: Feb 4, 2026 • Age: 28 hours

当前状态

高度 474.9 km
速度 7.63 km/s
星下点 15.18°N, 101.12°E
发射日期 Jan 21, 2025
运行时间 1 years
类型 internet

技术详情

分类 Payload
质量 575.00 kg
干质量 530.00 kg
总质量 575.00 kg
长度 0.30 m
直径 4.10 m
跨度 29.00 m
形状 Box + pan
制造商 SPXS
平台类型 Starlink V2MO
阶段状态 In Orbit
所有者/国家 SPXS/US

大型星座

Loading constellations...